Date String (YYYY-MM-DD hh:mm:ss) UTC,Instrument flags,Ambient pressure (hPa),Sample flow (lpm),Bypass flow (lpm),Sample temperature (°C),Ambient temperature (°C),ASC tube jacket temperature (°C),LED temperature (°C),Box temperature (°C),Sample RH (%),Span deviation,Mass concentration (μg/m³),Mass concentration (μg/m³),Mass concentration (μg/m³)
DateTimeUTC,F1_M11,P_M11,Q1_M11,Q2_M11,T1_M11,T2_M11,T3_M11,T4_M11,T5_M11,U1_M11,ZSPAN_M11,X0_M11,X2_M11,X1_M11
2021-11-08 01:00:00,,0824.4,5.00,0.00,29.7,28.5,00.0,38.6,31.5,07.0,0000.0,0004.61,0001.56,0000.92
2021-11-08 01:01:00,,0824.7,5.00,0.00,29.7,28.6,00.0,38.7,31.5,07.1,0000.0,0006.41,0001.56,0000.92
2021-11-08 01:02:00,,0824.7,5.00,0.00,29.7,28.7,00.0,38.7,31.5,07.1,0000.0,0006.57,0001.56,0000.93
2021-11-08 01:03:00,,0824.7,5.00,0.00,29.8,28.7,00.0,38.7,31.5,07.0,0000.0,0006.44,0001.50,0000.92
2021-11-08 01:04:00,,0824.6,5.00,0.00,29.8,28.8,00.0,38.7,31.6,07.0,0000.0,0006.27,0001.45,0000.92
2021-11-08 01:05:00,,0824.6,5.00,0.00,29.8,28.8,00.0,38.7,31.6,07.0,0000.0,0006.34,0001.46,0000.93
2021-11-08 01:06:00,,0824.7,5.00,0.00,29.8,28.9,00.0,38.7,31.6,07.0,0000.0,0006.20,0001.39,0000.93
2021-11-08 01:07:00,,0824.6,4.99,0.00,29.8,28.9,00.0,38.7,31.6,07.0,0000.0,0006.18,0001.36,0000.93
2021-11-08 01:08:00,,0824.7,5.00,0.00,29.9,28.9,00.0,38.8,31.7,07.0,0000.0,0005.71,0001.37,0000.93
2021-11-08 01:09:00,,0824.7,5.01,0.00,29.9,28.9,00.0,38.8,31.7,07.0,0000.0,0005.15,0001.35,0000.92
2021-11-08 01:10:00,,0824.7,5.01,0.00,29.9,28.9,00.0,38.8,31.7,07.0,0000.0,0005.07,0001.31,0000.92
2021-11-08 01:11:00,,0824.6,5.00,0.00,29.9,29.0,00.0,38.8,31.7,07.0,0000.0,0004.61,0001.33,0000.92
2021-11-08 01:12:00,,0824.6,4.99,0.00,29.9,29.0,00.0,38.8,31.7,07.0,0000.0,0002.96,0001.34,0000.93
2021-11-08 01:13:00,,0824.8,5.00,0.00,29.9,29.0,00.0,38.8,31.7,07.0,0000.0,0002.48,0001.31,0000.92
2021-11-08 01:14:00,,0824.6,4.99,0.00,30.0,29.0,00.0,38.8,31.8,07.0,0000.0,0002.46,0001.32,0000.92
2021-11-08 01:15:00,,0824.7,4.99,0.00,30.0,29.0,00.0,38.9,31.7,06.9,0000.0,0002.44,0001.33,0000.92
2021-11-08 01:16:00,,0824.7,5.01,0.00,30.0,29.0,00.0,38.9,31.7,06.9,0000.0,0002.46,0001.35,0000.92
2021-11-08 01:17:00,,0824.7,5.01,0.00,30.0,29.0,00.0,38.9,31.8,06.9,0000.0,0002.50,0001.37,0000.92
2021-11-08 01:18:00,,0824.8,4.99,0.00,30.0,29.0,00.0,38.9,31.7,06.9,0000.0,0002.91,0001.37,0000.91
2021-11-08 01:19:00,,0824.7,5.00,0.00,30.0,29.0,00.0,38.9,31.8,06.9,0000.0,0003.25,0001.39,0000.90
2021-11-08 01:20:00,,0824.7,5.01,0.00,30.1,29.0,00.0,39.0,31.8,06.9,0000.0,0003.68,0001.45,0000.90
2021-11-08 01:21:00,,0824.7,5.00,0.00,30.0,27.4,00.0,38.9,31.4,06.9,0000.0,0004.19,0001.48,0000.91
2021-11-08 01:22:00,,0824.7,5.00,0.00,29.9,25.9,00.0,38.9,31.2,06.9,0000.0,0005.25,0001.48,0000.91
2021-11-08 01:23:00,,0824.7,5.00,0.00,29.8,26.0,00.0,38.9,31.1,07.0,0000.0,0005.35,0001.44,0000.90
2021-11-08 01:24:00,,0824.7,4.99,0.00,29.6,26.4,00.0,38.8,31.1,07.0,0000.0,0005.39,0001.41,0000.90
2021-11-08 01:25:00,,0824.7,5.00,0.00,29.6,26.9,00.0,38.8,31.1,07.0,0000.0,0005.57,0001.40,0000.89
2021-11-08 01:26:00,,0824.7,5.00,0.00,29.6,27.3,00.0,38.7,31.2,07.0,0000.0,0005.78,0001.42,0000.90
2021-11-08 01:27:00,,0824.6,4.99,0.00,29.6,27.5,00.0,38.7,31.2,07.0,0000.0,0005.63,0001.35,0000.90
2021-11-08 01:28:00,,0824.7,5.01,0.00,29.6,27.8,00.0,38.7,31.3,07.0,0000.0,0005.76,0001.32,0000.89
2021-11-08 01:29:00,,0824.7,5.00,0.00,29.6,28.0,00.0,38.7,31.3,07.0,0000.0,0005.33,0001.33,0000.91
2021-11-08 01:30:00,,0824.8,5.00,0.00,29.6,28.1,00.0,38.7,31.3,07.0,0000.0,0005.14,0001.30,0000.91
2021-11-08 01:31:00,,0824.8,5.00,0.00,29.6,28.2,00.0,38.7,31.3,07.1,0000.0,0004.70,0001.23,0000.91
2021-11-08 01:32:00,,0824.8,4.99,0.00,29.6,28.3,00.0,38.7,31.4,07.0,0000.0,0004.17,0001.21,0000.90
2021-11-08 01:33:00,,0824.8,5.01,0.00,29.6,28.4,00.0,38.7,31.4,06.9,0000.0,0003.85,0001.24,0000.90
2021-11-08 01:34:00,,0824.8,4.99,0.00,29.7,28.5,00.0,38.7,31.4,06.9,0000.0,0004.64,0001.30,0000.90
2021-11-08 01:35:00,,0824.7,5.01,0.00,29.7,28.6,00.0,38.7,31.4,06.9,0000.0,0004.95,0001.28,0000.89
2021-11-08 01:36:00,,0824.7,4.99,0.00,29.7,28.6,00.0,38.7,31.5,06.9,0000.0,0004.98,0001.33,0000.89
2021-11-08 01:37:00,,0824.7,5.01,0.00,29.7,28.6,00.0,38.7,31.5,06.9,0000.0,0004.80,0001.33,0000.88
2021-11-08 01:38:00,,0824.7,5.00,0.00,29.7,28.7,00.0,38.7,31.4,06.9,0000.0,0004.77,0001.32,0000.88
2021-11-08 01:39:00,,0824.7,5.00,0.00,29.7,28.7,00.0,38.7,31.5,06.9,0000.0,0004.64,0001.35,0000.89
2021-11-08 01:40:00,,0824.6,5.00,0.00,29.8,28.7,00.0,38.7,31.5,06.9,0000.0,0004.60,0001.37,0000.88
2021-11-08 01:41:00,,0824.6,5.00,0.00,29.8,28.7,00.0,38.7,31.5,06.9,0000.0,0004.48,0001.38,0000.88
2021-11-08 01:42:00,,0824.6,5.00,0.00,29.8,28.7,00.0,38.7,31.5,06.9,0000.0,0004.66,0001.43,0000.89
2021-11-08 01:43:00,,0824.6,5.00,0.00,29.8,28.7,00.0,38.7,31.5,06.9,0000.0,0004.88,0001.46,0000.89
2021-11-08 01:44:00,,0824.7,5.01,0.00,29.8,28.7,00.0,38.7,31.5,06.9,0000.0,0004.15,0001.49,0000.90
2021-11-08 01:45:00,,0824.7,4.99,0.00,29.8,28.7,00.0,38.8,31.5,06.9,0000.0,0003.30,0001.47,0000.90
2021-11-08 01:46:00,,0824.7,5.00,0.00,29.8,28.7,00.0,38.8,31.5,06.9,0000.0,0002.89,0001.48,0000.91
2021-11-08 01:47:00,,0824.7,5.00,0.00,29.8,28.7,00.0,38.8,31.5,06.8,0000.0,0002.72,0001.44,0000.92
2021-11-08 01:48:00,,0824.7,5.00,0.00,29.8,28.7,00.0,38.8,31.5,06.8,0000.0,0002.77,0001.43,0000.91
2021-11-08 01:49:00,,0824.7,5.01,0.00,29.9,28.7,00.0,38.8,31.5,06.8,0000.0,0002.73,0001.42,0000.92
2021-11-08 01:50:00,,0824.7,5.01,0.00,29.9,28.7,00.0,38.8,31.5,06.8,0000.0,0002.71,0001.41,0000.92
2021-11-08 01:51:00,,0824.7,5.00,0.00,29.9,28.7,00.0,38.8,31.5,06.8,0000.0,0002.70,0001.41,0000.92
2021-11-08 01:52:00,,0824.7,5.00,0.00,29.9,28.7,00.0,38.8,31.5,06.8,0000.0,0002.76,0001.44,0000.92
2021-11-08 01:53:00,,0824.7,5.00,0.00,29.9,28.7,00.0,38.9,31.6,06.8,0000.0,0002.64,0001.41,0000.92
2021-11-08 01:54:00,,0824.7,5.00,0.00,29.9,28.7,00.0,38.9,31.6,06.8,0000.0,0003.12,0001.41,0000.92
2021-11-08 01:55:00,,0824.7,5.00,0.00,29.9,28.8,00.0,38.9,31.6,06.8,0000.0,0004.21,0001.39,0000.92
2021-11-08 01:56:00,,0824.7,4.99,0.00,29.9,28.8,00.0,38.9,31.6,06.8,0000.0,0004.16,0001.38,0000.93
2021-11-08 01:57:00,,0824.7,5.00,0.00,29.9,28.8,00.0,38.9,31.6,06.8,0000.0,0004.24,0001.40,0000.93
2021-11-08 01:58:00,,0824.7,5.00,0.00,29.9,28.8,00.0,38.9,31.6,06.8,0000.0,0004.23,0001.42,0000.94
2021-11-08 01:59:00,,0824.8,5.00,0.00,30.0,28.9,00.0,38.9,31.7,06.7,0000.0,0004.14,0001.42,0000.95
